Regional Weather Roundup
Issued by NWS

Home | Current Version | Previous Version | Graphics & Text | Print | Product List | Glossary Off
Versions: 1 2 3 4 5 6 7 8 9 10 11 12 13 14 15 16 17 18 19 20 21 22 23 24 25 26 27 28 29 30 31 32 33 34 35 36 37 38 39 40 41 42 43 44 45 46 47 48

000
ASUS43 KDMX 231907
RWRIA

WEATHER ROUNDUP FOR IOWA
NATIONAL WEATHER SERVICE DES MOINES IA
100 PM CST SUN NOV 23 2014

NOTE: "FAIR" INDICATES FEW OR NO CLOUDS BELOW 12,000 FEET WITH NO
SIGNIFICANT WEATHER AND/OR OBSTRUCTIONS TO VISIBILITY.

* - THESE STATIONS ARE NOT NWS STATIONS...THUS NOT UNDER NWS
QUALITY CONTROL.  THEY ALSO DO NOT REPORT WEATHER SUCH
AS PRECIPITATION OR FOG.

IAZ001>003-012>014-020>022-031>034-043>046-232000-
   NORTHWEST IOWA

CITY           SKY/WX    TMP DP  RH WIND       PRES   REMARKS
CARROLL *      CLOUDY    46  41  81 NW21G29   29.41F
CHEROKEE *     CLOUDY    43  39  87 NW21G31   29.48S
DENISON *      CLOUDY    45  39  81 NW24G33   29.44F
LE MARS *      MIX PCPN  43  37  81 NW18G28   29.50F
ORANGE CITY *  LGT RAIN  43  37  81 NW18G28     N/A
SHELDON *      PTSUNNY   41  39  93 NW20G28   29.47F
SIOUX CITY     CLOUDY    44  36  73 NW26G39   29.49F
SPENCER        CLOUDY    45  39  79 NW20G30   29.45F
STORM LAKE *   CLOUDY    43  39  87 NW24G33   29.45F
$$

IAZ055>058-069>071-079>083-090>094-232000-
   SOUTHWEST IOWA

CITY           SKY/WX    TMP DP  RH WIND       PRES   REMARKS
ATLANTIC *     CLOUDY    46  43  87 NW23G30   29.41R
AUDUBON *      CLOUDY    46  39  76 NW17G25   29.42F
CLARINDA *     CLOUDY    55  55 100 W6        29.39F
COUNCIL BLFS * PTSUNNY   46  43  87 N29G39    29.42F
CRESTON *      CLOUDY    54  54 100 SW5       29.37F
HARLAN  *      CLOUDY    46  43  87 N22G31    29.45F
LAMONI         CLOUDY    54  53  97 SW7       29.37F
RED OAK *      CLOUDY    46  45  93 NW18G30   29.41S FOG
SHENANDOAH *   CLOUDY    48  45  87 NW21G31   29.42R
$$

IAZ047>049-059>061-072>074-084-232000-
   CENTRAL IOWA

CITY           SKY/WX    TMP DP  RH WIND       PRES   REMARKS
AMES           CLOUDY    53  51  93 SW6       29.38F
ANKENY *       PTSUNNY   54  54 100 S7        29.37F
CHARITON *     FOG       52  52 100 S5        29.38F VSB 1
DES MOINES     CLOUDY    54  51  90 S5        29.38F FOG
GRINNELL*      DRIZZLE   50  50 100 S5        29.39F
KNOXVILLE *    LGT RAIN  52  52 100 CALM      29.37F
MARSHALLTOWN   LGT RAIN  50  50 100 CALM      29.39F FOG
PELLA *        LGT RAIN  52  52 100 S3        29.40F
PERRY *        CLOUDY    54  54 100 S3        29.38F
$$

IAZ004>006-015-016-023>025-035-036-232000-
   NORTH CENTRAL IOWA

CITY           SKY/WX    TMP DP  RH WIND       PRES   REMARKS
ALGONA *       CLOUDY    50  48  93 NW9       29.41R FOG
CLARION *      CLOUDY    54  54 100 W9        29.38F FOG
ESTHERVILLE    CLOUDY    47  41  80 NW17      29.43S
FORT DODGE *   CLOUDY    50  46  87 NW3       29.40F
MASON CITY     CLOUDY    52  51  97 S6        29.39F FOG
FOREST CITY *  DRIZZLE   50  50 100 S6        29.39F
IOWA FALLS *   CLOUDY    52  50  93 S9        29.40F FOG
$$

IAZ007>011-017>019-026>030-037>042-050>054-066-232000-
   NORTHEAST IOWA

CITY           SKY/WX    TMP DP  RH WIND       PRES   REMARKS
CEDAR RAPIDS   RAIN      50  50 100 SE7       29.40F FOG
CHARLES CITY * CLOUDY    50  50 100 S9        29.40F FOG
CLINTON *      CLOUDY    48  46  93 SE13      29.48F
DECORAH *      LGT RAIN  48  48 100 S7G13     29.42F
DUBUQUE        LGT RAIN  48  47  96 SE10      29.45F FOG
MONTICELLO *   LGT RAIN  50  50 100 SE8       29.43F
OELWEIN *      CLOUDY    50  50 100 SE8       29.42F FOG
WATERLOO       CLOUDY    50  50 100 S5        29.41F
$$

IAZ064-065-067-068-078-232000-
   EAST CENTRAL IOWA

CITY           SKY/WX    TMP DP  RH WIND       PRES   REMARKS
DAVENPORT      LGT RAIN  50  48  93 SE14      29.44F FOG
IOWA CITY      LGT RAIN  50  50 100 SE7       29.43F FOG
MT. PLEASANT * DRIZZLE   50  50 100 S10       29.42F
MUSCATINE *    LGT RAIN  52  50  93 SE9       29.43F
QUAD CITIES    LGT RAIN  52  49  89 SE12      29.44F FOG
$$

IAZ062-063-075>077-085>089-095>099-232000-
   SOUTHEAST IOWA

CITY           SKY/WX    TMP DP  RH WIND       PRES   REMARKS
BURLINGTON     RAIN      51  51 100 S10       29.42F FOG
FAIRFIELD *    LGT RAIN  52  52 100 S10       29.40F
FORT MADISON * DRIZZLE   54  54 100 S8        29.43F
KEOKUK *       CLOUDY    54  52  94 S8        29.41F
OSKALOOSA *    RAIN      52  50  93 S6        29.39F
CENTERVILLE *  LGT RAIN  54  54 100 S6        29.40F
OTTUMWA        LGT RAIN  52  51  97 S10       29.39F FOG
WASHINGTON *   LGT RAIN  52  52 100 S10       29.41F
$$

ABBREVIATIONS USED IN REMARKS
   TC - TEMPERATURES IN CELSIUS
  WCI - WIND CHILL INDEX
   HX - HEAT INDEX
  VSB - VISIBILITY
$$




USA.gov is the U.S. government's official web portal to all federal, state and local government web resources and services.